Regional Weather Roundup
Issued by NWS

Home | Current Version | Previous Version | Graphics & Text | Print | Product List | Glossary On
Versions: 1 2 3 4 5 6 7 8 9 10 11 12 13 14 15 16 17 18 19 20 21 22 23 24 25 26 27 28 29 30 31 32 33 34 35 36 37 38 39 40 41 42 43 44 45 46 47 48 49 50
000
ASUS43 KBIS 282120
RWRND

NORTH DAKOTA REGIONAL WEATHER ROUNDUP
NATIONAL WEATHER SERVICE BISMARCK ND
400 PM CDT MON JUL 28 2014

NOTE: "FAIR" INDICATES FEW OR NO CLOUDS BELOW 12,000 FEET WITH NO
SIGNIFICANT WEATHER AND/OR OBSTRUCTIONS TO VISIBILITY.


NDZ001>003-009>011-017-282200-
NORTHWEST NORTH DAKOTA

CITY           SKY/WX    TMP DP  RH WIND       PRES   REMARKS
WILLISTON      MOSUNNY   80  50  34 VRB6      30.25F
MINOT          MOSUNNY   76  54  46 N8        30.27F
MINOT AFB      MOSUNNY   73  55  53 VRB1      30.26F
$$

NDZ018>021-031>035-040>046-282200-
SOUTHWEST NORTH DAKOTA

CITY           SKY/WX    TMP DP  RH WIND       PRES   REMARKS
BISMARCK       MOSUNNY   75  48  38 NE6       30.29F
DICKINSON      MOSUNNY   78  51  38 VRB5      30.27F
GARRISON         N/A     73  56  54 VRB6      30.28F
HETTINGER ARPT SUNNY     78  50  37 CALM      30.30F
$$

NDZ004>008-012>016-024-026-027-054-282200-
NORTHEAST NORTH DAKOTA

CITY           SKY/WX    TMP DP  RH WIND       PRES   REMARKS
GRAND FORKS    MOSUNNY   74  55  51 N10       30.22F
GRND FRKS AFB  MOSUNNY   74  56  53 N10       30.24F
DEVILS LAKE    MOSUNNY   72  54  53 NW9       30.25F
$$

NDZ022-023-025-028>030-036>039-047>053-282200-
SOUTHEAST NORTH DAKOTA

CITY           SKY/WX    TMP DP  RH WIND       PRES   REMARKS
FARGO          CLOUDY    74  51  44 N10       30.23F
JAMESTOWN      CLOUDY    71  50  47 N7        30.27F
$$




USA.gov is the U.S. government's official web portal to all federal, state and local government web resources and services.